Location: Unspecified
(52.4292°N, 19.3359°E)
Time: 23:16:36
(UTC+02:00)

Altair - Pass Details

Date: 24 May 2024
Orbit: 1502 x 1682 km, 47.2° (Epoch: 19 June)

Event Time Altitude Azimuth Distance (km) Brightness Sun altitude
Rises 11:24:04 0° 238° (WSW) 4,826 10.1 55.3°
Reaches altitude 10° 11:27:12 10° 235° (SW) 3,863 9.8 55.5°
Maximum altitude 11:36:48 57° 160° (SSE) 1,919 11.5 56.2°
Drops below altitude 10° 11:46:36 10° 86° (E) 3,948 9.9 56.8°
Sets 11:49:50 0° 83° (E) 4,937 10.3 57.0°
